N2UFM Weather Reports


time (UTC)temp
F
wind
direction
speed
knots
gust
knots
rain 1hr
in
rain 24hr
in
rain mn
in
humidity
%
barometer
mb
20260504004744 57 350 0.9 14.8 0.00 0.00 0.00 39 1013.2
20260504004244 57 285 0.9 14.8 0.00 0.00 0.00 39 1013.1
20260504003744 57 277 0.0 14.8 0.00 0.00 0.00 39 1013.0
20260504003243 57 288 0.0 14.8 0.00 0.00 0.00 39 1012.9
20260504002743 57 217 0.0 14.8 0.00 0.00 0.00 39 1012.8
20260504002243 57 217 0.0 14.8 0.00 0.00 0.00 39 1012.7
20260504001743 57 212 0.0 14.8 0.00 0.00 0.00 38 1012.5
20260504001243 57 210 0.0 14.8 0.00 0.00 0.00 38 1012.5
20260504000742 58 210 0.9 14.8 0.00 0.00 0.00 37 1012.3
20260504000242 58 210 0.0 14.8 0.00 0.00 0.00 37 1012.4
20260503235742 58 198 0.0 14.8 0.00 0.00 0.00 36 1012.3
20260503235242 58 274 0.0 14.8 0.00 0.00 0.00 36 1012.3
20260503234742 59 274 0.0 14.8 0.00 0.00 0.00 36 1012.3
20260503234241 59 265 0.0 14.8 0.00 0.00 0.00 35 1012.3
20260503233741 59 107 0.9 14.8 0.00 0.00 0.00 35 1012.2
20260503233241 59 261 0.0 14.8 0.00 0.00 0.00 34 1012.2
20260503232741 59 268 0.0 14.8 0.00 0.00 0.00 34 1012.1
20260503232241 60 273 2.6 14.8 0.00 0.00 0.00 33 1012.1
20260503231741 60 274 0.9 14.8 0.00 0.00 0.00 33 1012.1
20260503231241 60 251 1.7 14.8 0.00 0.00 0.00 33 1012.0
20260503230740 60 300 1.7 14.8 0.00 0.00 0.00 33 1012.0
20260503230240 60 205 0.9 14.8 0.00 0.00 0.00 33 1011.9
20260503225740 61 283 1.7 14.8 0.00 0.00 0.00 32 1012.0
20260503225240 61 274 0.9 14.8 0.00 0.00 0.00 32 1012.0
20260503224740 61 282 0.9 14.8 0.00 0.00 0.00 32 1011.9
20260503224240 61 253 0.9 14.8 0.00 0.00 0.00 31 1011.9
20260503223740 61 239 0.9 14.8 0.00 0.00 0.00 31 1011.8
20260503223239 62 237 0.9 14.8 0.00 0.00 0.00 30 1011.8
20260503222739 62 269 0.9 14.8 0.00 0.00 0.00 30 1011.8
20260503222239 62 289 1.7 14.8 0.00 0.00 0.00 29 1011.7
20260503221739 63 282 2.6 14.8 0.00 0.00 0.00 29 1011.7
20260503221239 63 284 0.0 14.8 0.00 0.00 0.00 30 1011.6
20260503220739 63 283 0.9 14.8 0.00 0.00 0.00 28 1011.8
20260503220239 63 283 4.3 14.8 0.00 0.00 0.00 28 1011.8
20260503215738 62 259 0.9 14.8 0.00 0.00 0.00 29 1011.8
20260503215238 62 278 1.7 14.8 0.00 0.00 0.00 29 1011.8
20260503214738 63 320 2.6 14.8 0.00 0.00 0.00 28 1011.8
20260503214238 63 285 1.7 14.8 0.00 0.00 0.00 28 1011.8
20260503213738 63 269 0.9 14.8 0.00 0.00 0.00 28 1011.8
20260503213238 63 281 4.3 14.8 0.00 0.00 0.00 29 1011.8
20260503212738 63 285 1.7 14.8 0.00 0.00 0.00 29 1011.8
20260503212237 63 291 4.3 14.8 0.00 0.00 0.00 29 1011.8
20260503211737 64 270 0.9 14.8 0.00 0.00 0.00 29 1011.9
20260503211237 64 261 1.7 14.8 0.00 0.00 0.00 29 1011.8
20260503210737 64 277 1.7 14.8 0.00 0.00 0.00 29 1011.8
20260503210237 63 330 2.6 14.8 0.00 0.00 0.00 29 1011.8
20260503205737 63 255 1.7 14.8 0.00 0.00 0.00 29 1011.6
20260503205236 62 278 1.7 14.8 0.00 0.00 0.00 29 1011.7
20260503204736 63 287 2.6 14.8 0.00 0.00 0.00 29 1011.6
20260503204236 63 282 5.2 14.8 0.00 0.00 0.00 29 1011.6
20260503203736 63 260 0.9 14.8 0.00 0.00 0.00 29 1011.7
20260503203236 63 326 1.7 14.8 0.00 0.00 0.00 29 1011.7
20260503202736 63 277 0.9 14.8 0.00 0.00 0.00 30 1011.7
20260503202235 63 270 1.7 13.0 0.00 0.00 0.00 30 1011.8
20260503201735 62 196 0.9 13.0 0.00 0.00 0.00 30 1011.8
20260503201235 62 295 4.3 13.0 0.00 0.00 0.00 29 1011.8
20260503200735 62 298 1.7 13.0 0.00 0.00 0.00 29 1011.9
20260503200235 62 311 2.6 12.2 0.00 0.00 0.00 30 1011.8
20260503195735 62 270 1.7 12.2 0.00 0.00 0.00 31 1012.1
20260503195235 62 286 1.7 12.2 0.00 0.00 0.00 31 1012.0
20260503194734 61 279 1.7 12.2 0.00 0.00 0.00 32 1012.0
20260503194234 60 289 1.7 12.2 0.00 0.00 0.00 32 1012.2
20260503193734 60 289 2.6 12.2 0.00 0.00 0.00 32 1012.2
20260503193234 60 310 2.6 12.2 0.00 0.00 0.00 32 1012.3
20260503192734 60 295 2.6 12.2 0.00 0.00 0.00 32 1012.3
20260503192234 59 301 2.6 12.2 0.00 0.00 0.00 33 1012.3
20260503191733 60 286 4.3 12.2 0.00 0.00 0.00 32 1012.4
20260503191233 61 310 0.9 12.2 0.00 0.00 0.00 32 1012.3
20260503190733 61 285 2.6 12.2 0.00 0.00 0.00 33 1012.4
20260503190233 60 296 1.7 12.2 0.00 0.00 0.00 34 1012.3
20260503185733 60 282 2.6 12.2 0.00 0.00 0.00 33 1012.4
20260503185233 61 288 1.7 12.2 0.00 0.00 0.00 34 1012.5
20260503184732 60 282 4.3 12.2 0.00 0.00 0.00 34 1012.5
20260503184232 59 317 0.9 12.2 0.00 0.00 0.00 35 1012.8
20260503183732 59 257 2.6 12.2 0.00 0.00 0.00 34 1012.7
20260503183232 59 259 5.2 12.2 0.00 0.00 0.00 34 1012.9
20260503182732 59 281 0.9 12.2 0.00 0.00 0.00 35 1012.8
20260503182232 59 271 4.3 12.2 0.00 0.00 0.00 36 1012.8
20260503181732 59 290 0.9 12.2 0.00 0.00 0.00 36 1012.9
20260503181232 58 230 0.9 12.2 0.00 0.00 0.00 37 1012.8
20260503180731 57 221 0.9 12.2 0.00 0.00 0.00 38 1012.8
20260503180231 57 284 4.3 12.2 0.00 0.00 0.00 37 1012.9
20260503175731 57 327 2.6 12.2 0.00 0.00 0.00 38 1012.9
20260503175231 56 278 1.7 12.2 0.00 0.00 0.00 38 1013.0
20260503174731 56 191 1.7 12.2 0.00 0.00 0.00 39 1013.2
20260503174230 56 323 1.7 12.2 0.00 0.00 0.00 38 1013.0
20260503173730 56 260 4.3 12.2 0.00 0.00 0.00 38 1013.0
20260503173230 57 327 2.6 12.2 0.00 0.00 0.00 39 1013.0
20260503172730 57 304 2.6 12.2 0.00 0.00 0.00 40 1013.0
20260503172230 57 315 4.3 12.2 0.00 0.00 0.00 38 1013.1
20260503171730 56 266 1.7 12.2 0.00 0.00 0.00 39 1013.1
20260503171230 56 311 4.3 12.2 0.00 0.00 0.00 39 1013.1
20260503170729 56 298 5.2 12.2 0.00 0.00 0.00 40 1013.1
20260503170229 55 265 0.9 12.2 0.00 0.00 0.00 41 1013.1
20260503150725 54 239 0.9 12.2 0.00 0.00 0.00 39 1013.6
20260503150225 54 286 1.7 12.2 0.00 0.00 0.00 39 1013.6
20260503140224 54 343 1.7 12.2 0.00 0.00 0.00 47 1013.7
20260503131222 51 338 0.9 10.4 0.00 0.00 0.00 52 1013.7
20260503130722 51 224 0.9 10.4 0.00 0.00 0.00 52 1013.7
20260503130221 51 295 0.9 10.4 0.00 0.00 0.00 53 1013.6
20260503120220 49 309 0.0 8.7 0.00 0.00 0.00 56 1013.4
20260503110718 46 276 0.0 8.7 0.00 0.00 0.00 58 1013.0
20260503110218 46 308 1.7 8.7 0.00 0.00 0.00 58 1013.0
20260503100216 47 329 0.0 8.7 0.00 0.00 0.00 57 1011.9
20260503090214 47 337 0.9 8.7 0.00 0.00 0.00 55 1011.5
20260503081212 48 1 0.9 7.8 0.00 0.00 0.00 54 1011.5
20260503080712 48 358 0.9 7.8 0.00 0.00 0.00 54 1011.4
20260503080212 48 327 1.7 7.8 0.00 0.00 0.00 54 1011.5
20260503072711 49 257 0.9 7.8 0.00 0.00 0.00 52 1011.5
20260503072211 49 5 1.7 7.8 0.00 0.00 0.00 52 1011.4
20260503071711 49 238 0.0 7.8 0.00 0.00 0.00 52 1011.5
20260503071211 49 236 0.9 7.8 0.00 0.00 0.00 51 1011.4
20260503070711 49 309 0.9 7.8 0.00 0.00 0.00 51 1011.4
20260503070210 50 354 0.9 7.8 0.00 0.00 0.00 50 1011.4
20260503060208 51 350 0.0 7.8 0.00 0.00 0.00 48 1011.7
20260503054708 51 330 0.9 7.8 0.00 0.00 0.00 46 1011.7
20260503054208 51 0 1.7 7.8 0.00 0.00 0.00 46 1011.7
20260503053708 51 319 0.9 7.8 0.00 0.00 0.00 46 1011.7
20260503053207 52 299 0.9 7.8 0.00 0.00 0.00 46 1011.8
20260503052707 52 319 2.6 7.8 0.00 0.00 0.00 46 1011.8
20260503052207 52 293 0.0 7.8 0.00 0.00 0.00 46 1011.8
20260503051707 52 346 1.7 7.8 0.00 0.00 0.00 46 1011.9
20260503051207 52 313 2.6 7.8 0.00 0.00 0.00 45 1012.0
20260503050707 52 243 0.9 7.0 0.00 0.00 0.00 46 1012.1
20260503050206 52 351 0.9 7.0 0.00 0.00 0.00 45 1012.1
20260503045706 52 348 1.7 7.0 0.00 0.00 0.00 46 1012.2
20260503045206 52 343 1.7 7.0 0.00 0.00 0.00 46 1012.2
20260503044706 52 331 0.9 7.0 0.00 0.00 0.00 46 1012.3
20260503044206 52 350 1.7 7.0 0.00 0.00 0.00 45 1012.2
20260503043706 53 297 0.9 6.1 0.00 0.00 0.00 45 1012.2
20260503043205 53 335 0.0 6.1 0.00 0.00 0.00 45 1012.1
20260503042705 53 355 1.7 6.1 0.00 0.00 0.00 45 1012.2
20260503042205 53 357 1.7 6.1 0.00 0.00 0.00 45 1012.2
20260503041705 53 34 0.9 6.1 0.00 0.00 0.00 45 1012.2
20260503041205 53 13 0.9 6.1 0.00 0.00 0.00 44 1012.2
20260503040705 53 317 0.0 6.1 0.00 0.00 0.00 44 1012.3
20260503040204 53 138 0.9 2.6 0.00 0.00 0.00 44 1012.3
20260503035704 53 322 0.9 7.8 0.00 0.00 0.00 44 1012.3
20260503035204 53 306 1.7 7.8 0.00 0.00 0.00 44 1012.3
20260503034704 54 323 1.7 7.8 0.00 0.00 0.00 45 1012.3
20260503034204 54 294 0.0 7.8 0.00 0.00 0.00 45 1012.3
20260503033704 54 316 0.9 7.8 0.00 0.00 0.00 44 1012.3
20260503033203 54 309 2.6 7.8 0.00 0.00 0.00 44 1012.2
20260503032703 54 321 0.9 7.8 0.00 0.00 0.00 44 1012.2
20260503032203 54 300 0.0 7.8 0.00 0.00 0.00 44 1012.3
20260503031703 54 352 0.9 7.8 0.00 0.00 0.00 43 1012.2
20260503031203 54 347 0.0 7.8 0.00 0.00 0.00 43 1012.2
20260503030703 54 8 0.9 7.8 0.00 0.00 0.00 43 1012.3
20260503030202 54 277 0.9 7.8 0.00 0.00 0.00 42 1012.3
20260503025702 55 319 0.0 7.8 0.00 0.00 0.00 42 1012.3
20260503025202 55 326 0.0 7.8 0.00 0.00 0.00 42 1012.3
20260503024702 55 9 0.0 7.8 0.00 0.00 0.00 43 1012.3
20260503024202 55 319 0.9 7.8 0.00 0.00 0.00 42 1012.2
20260503023701 55 240 0.0 7.8 0.00 0.00 0.00 42 1012.3
20260503023201 55 334 0.9 7.8 0.00 0.00 0.00 42 1012.1
20260503022701 55 286 0.9 7.8 0.00 0.00 0.00 42 1012.1
20260503022201 55 336 1.7 7.8 0.00 0.00 0.00 42 1012.2
20260503021701 55 326 0.0 7.8 0.00 0.00 0.00 42 1012.2
20260503021201 55 310 0.9 7.8 0.00 0.00 0.00 42 1012.2
20260503020700 55 338 0.0 7.8 0.00 0.00 0.00 42 1012.2
20260503020200 55 301 0.9 7.8 0.00 0.00 0.00 42 1012.2
20260503015700 55 301 0.0 7.8 0.00 0.00 0.00 43 1012.3
20260503015200 55 231 0.0 7.8 0.00 0.00 0.00 43 1012.2
20260503014700 55 339 0.9 7.8 0.00 0.00 0.00 43 1012.4
20260503014159 55 12 0.0 7.8 0.00 0.00 0.00 42 1012.3
20260503013659 56 303 0.0 7.8 0.00 0.00 0.00 42 1012.4
20260503013159 56 300 0.9 7.8 0.00 0.00 0.00 42 1012.3
20260503012659 56 7 0.9 7.8 0.00 0.00 0.00 41 1012.3
20260503012159 56 74 0.9 7.8 0.00 0.00 0.00 41 1012.3
20260503011659 56 349 0.0 7.8 0.00 0.00 0.00 42 1012.3
20260503011158 56 357 0.9 7.8 0.00 0.00 0.00 42 1012.1
20260503010658 56 323 0.0 7.8 0.00 0.00 0.00 42 1012.2
20260503010158 56 253 0.0 7.8 0.00 0.00 0.00 41 1012.1
20260503005658 56 304 0.9 7.8 0.00 0.00 0.00 41 1012.0
20260503005158 56 358 0.9 7.8 0.00 0.00 0.00 42 1012.1